Hourly Data Report for March 06, 2020

TORONTO CITY
ONTARIO
Current Station Operator: ECCC - MSC

43°40'00.000" N
79°24'00.000" W
112.50 m
6158355
71508
XTO

Download Data

Hourly Data (March 2020)
Hourly Data Report for March 6, 2020
TIME
LST
Temp Definition
°C
Dew Point Definition
°C
Rel Hum Definition
%
Precip. Amount Definition
mm

Wind Dir Definition
10's deg

Wind Spd Definition
km/h
Visibility Definition
km
Stn Press Definition
kPa
Hmdx Definition


Wind Chill Definition


Weather Definition


00:00 2.4 -1.8 74 0.0       99.93     LegendNANA
01:00 2.6 -2.0 71 0.0       99.90     LegendNANA
02:00 2.6 -2.6 69 0.0       99.81     LegendNANA
03:00 2.2 -1.9 75 0.0       99.71     LegendNANA
04:00 1.9 -2.5 73 0.0       99.62     LegendNANA
05:00 2.3 -1.8 74 0.0       99.60     LegendNANA
06:00 2.5 -1.9 73 0.0       99.63     LegendNANA
07:00 2.4 -3.9 63 0.0       99.70     LegendNANA
08:00 2.4 -4.6 60 0.0       99.76     LegendNANA
09:00 2.4 -4.7 59 0.0       99.83     LegendNANA
10:00 1.9 -4.2 64 0.0       99.92     LegendNANA
11:00 0.7 -1.6 85 0.0       100.01     LegendNANA
12:00 1.6 -0.6 85 0.3       100.08     LegendNANA
13:00 1.9 0.0 87 0.7       100.13     LegendNANA
14:00 2.5 -0.8 79 0.0       100.17     LegendNANA
15:00 3.4 -2.3 66 0.0       100.24     LegendNANA
16:00 3.1 -2.9 65 0.2       100.37     LegendNANA
17:00 2.6 -3.0 67 0.0       100.53     LegendNANA
18:00 2.2 -3.8 64 0.0       100.67     LegendNANA
19:00 1.8 -4.2 65 0.0       100.82     LegendNANA
20:00 1.7 -5.3 59 0.0       100.91     LegendNANA
21:00 1.5 -6.3 56 0.0       101.03     LegendNANA
22:00 1.1 -6.9 55 0.0       101.12     LegendNANA
23:00 0.5 -7.7 54 0.0       101.20     LegendNANA

Notes on Data Quality.

Legend

  • E = Estimated
  • M = Missing
  • NA = Not Available*
  • [empty] = Indicates an unobserved value
Date modified: